{"data":{"norad_id":62027,"epoch":"2026-05-24T13:23:59.813088Z","epoch_age_seconds":123262,"freshness":"FRESH","line1":"1 62027U 24213V   26144.55833117  .00013982  00000+0  48340-3 0  9993","line2":"2 62027  53.1584 175.5094 0001139  81.4210 278.6920 15.30194640 84779","mean_motion":15.3019464,"eccentricity":0.0001139,"inclination_deg":53.1584,"raan_deg":175.5094,"arg_perigee_deg":81.421,"mean_anomaly_deg":278.692,"bstar":0.0004834,"rev_number":8477,"period_min":94.105675340753,"perigee_km":474.45047483633,"apogee_km":476.01167208346,"semimajor_km":6853.3680734599,"source":"CELESTRAK","updated_at":"2026-05-25T13:38:19.523006Z"}}